Weather History for KMQS - November, 2012

Change the Weather History Date:

Monday, November 5, 2012

  Actual Average (KLNS) Record (KLNS)
Temperature  
Mean Temperature 38 °F -  
Max Temperature 42 °F 56 °F 73 °F (2005)
Min Temperature 33 °F 38 °F 24 °F (1991)
Degree Days  
Heating Degree Days 28    
Moisture  
Dew Point 28 °F    
Average Humidity 68    
Maximum Humidity 75    
Minimum Humidity 57    
Precipitation  
Precipitation 0.00 in - - ()
Sea Level Pressure  
Sea Level Pressure 30.09 in    
Wind  
Wind Speed 8 mph (NNW)    
Max Wind Speed 14 mph    
Max Gust Speed 20 mph    
Visibility 10 miles    
Events      
Averages and records for this station are not official NWS values.
T = Trace of Precipitation, MM = Missing Value Source: NWS Daily Summary

Daily Weather History Graph

Daily Weather History Graph

Search for Another Location

Airport or City:

Trip Planner

Search our weather history database for the weather conditions in past years. The results will help you decide how hot, cold, wet, or windy it might be!

Date:

Astronomy

Nov. 05, 2012 Rise Set
Actual Time 6:37 AM EST 4:56 PM EST
Civil Twilight 6:09 AM EST 5:24 PM EST
Nautical Twilight 5:36 AM EST 5:56 PM EST
Astronomical Twilight 5:05 AM EST 6:28 PM EST
Moon 10:31 PM EST (11/5) 11:55 AM EST (11/5)
Length of Visible Light 11h 15m
Length of Day
10h 18m
Waning Gibbous, 63% of the Moon is Illuminated
Nov 5
Waning Gibbous
Nov 6
Last Quarter
Nov 13
New
Nov 20
First Quarter
Nov 28
Full

Hourly Weather History & Observations

Time (EST) Temp. Windchill Dew Point Humidity Pressure Visibility Wind Dir Wind Speed Gust Speed Precip Events Conditions
12:55 AM 37.4 °F 31.4 °F 30.2 °F 75% 30.03 in 10.0 mi North 8.1 mph - N/A   Overcast
1:15 AM 37.4 °F 32.1 °F 30.2 °F 75% 30.03 in 10.0 mi NNW 6.9 mph - N/A   Overcast
1:35 AM 37.4 °F 32.8 °F 30.2 °F 75% 30.03 in 10.0 mi NNW 5.8 mph - N/A   Overcast
1:55 AM 37.4 °F 30.3 °F 30.2 °F 75% 30.02 in 10.0 mi North 10.4 mph - N/A   Overcast
2:15 AM 37.4 °F 31.4 °F 30.2 °F 75% 30.02 in 10.0 mi North 8.1 mph - N/A   Overcast
2:35 AM 37.4 °F 30.8 °F 30.2 °F 75% 30.03 in 10.0 mi North 9.2 mph - N/A   Overcast
2:55 AM 37.4 °F 31.4 °F 30.2 °F 75% 30.03 in 10.0 mi North 8.1 mph - N/A   Overcast
3:15 AM 37.4 °F 31.4 °F 30.2 °F 75% 30.02 in 10.0 mi North 8.1 mph - N/A   Overcast
3:35 AM 37.4 °F 30.8 °F 30.2 °F 75% 30.03 in 10.0 mi North 9.2 mph - N/A   Overcast
3:55 AM 37.4 °F 30.3 °F 28.4 °F 70% 30.03 in 10.0 mi NNW 10.4 mph - N/A   Overcast
4:15 AM 37.4 °F 32.1 °F 28.4 °F 70% 30.03 in 10.0 mi North 6.9 mph - N/A   Overcast
4:35 AM 37.4 °F 32.1 °F 30.2 °F 75% 30.03 in 10.0 mi NNW 6.9 mph - N/A   Overcast
4:55 AM 37.4 °F 30.8 °F 30.2 °F 75% 30.03 in 10.0 mi NNW 9.2 mph - N/A   Overcast
5:15 AM 37.4 °F 31.4 °F 30.2 °F 75% 30.04 in 10.0 mi NNW 8.1 mph - N/A   Overcast
5:35 AM 37.4 °F 29.8 °F 30.2 °F 75% 30.04 in 10.0 mi North 11.5 mph - N/A   Overcast
5:55 AM 35.6 °F 29.2 °F 28.4 °F 75% 30.05 in 10.0 mi North 8.1 mph - N/A   Overcast
6:15 AM 35.6 °F 28.6 °F 26.6 °F 70% 30.05 in 10.0 mi North 9.2 mph - N/A   Overcast
6:35 AM 35.6 °F 27.5 °F 26.6 °F 70% 30.06 in 10.0 mi North 11.5 mph 17.3 mph N/A   Overcast
6:55 AM 35.6 °F 28.6 °F 24.8 °F 65% 30.06 in 10.0 mi NNW 9.2 mph - N/A   Overcast
7:35 AM 35.6 °F 29.9 °F 26.6 °F 70% 30.07 in 10.0 mi North 6.9 mph - N/A   Overcast
7:55 AM 37.4 °F 31.4 °F 26.6 °F 65% 30.08 in 10.0 mi NNW 8.1 mph - N/A   Overcast
8:15 AM 37.4 °F 30.3 °F 26.6 °F 65% 30.08 in 10.0 mi North 10.4 mph - N/A   Overcast
8:35 AM 37.4 °F 30.8 °F 26.6 °F 65% 30.09 in 10.0 mi NNW 9.2 mph - N/A   Overcast
8:55 AM 37.4 °F 31.4 °F 26.6 °F 65% 30.09 in 10.0 mi North 8.1 mph - N/A   Overcast
9:15 AM 37.4 °F 30.3 °F 28.4 °F 70% 30.08 in 10.0 mi NNW 10.4 mph - N/A   Overcast
9:35 AM 37.4 °F 30.3 °F 28.4 °F 70% 30.09 in 10.0 mi North 10.4 mph - N/A   Overcast
9:55 AM 37.4 °F 30.8 °F 28.4 °F 70% 30.09 in 10.0 mi NNW 9.2 mph 19.6 mph N/A   Overcast
10:35 AM 37.4 °F 30.3 °F 28.4 °F 70% 30.09 in 10.0 mi North 10.4 mph 16.1 mph N/A   Overcast
10:55 AM 39.2 °F 31.2 °F 28.4 °F 65% 30.09 in 10.0 mi NNW 13.8 mph 18.4 mph N/A   Overcast
11:15 AM 37.4 °F 30.3 °F 28.4 °F 70% 30.09 in 10.0 mi North 10.4 mph - N/A   Overcast
11:35 AM 37.4 °F 30.3 °F 28.4 °F 70% 30.09 in 10.0 mi North 10.4 mph - N/A   Overcast
11:55 AM 39.2 °F 33.0 °F 28.4 °F 65% 30.08 in 10.0 mi North 9.2 mph - N/A   Overcast
12:35 PM 41.0 °F 34.7 °F 28.4 °F 61% 30.07 in 10.0 mi North 10.4 mph 17.3 mph N/A   Overcast
12:55 PM 41.0 °F 34.7 °F 28.4 °F 61% 30.06 in 10.0 mi North 10.4 mph 16.1 mph N/A   Mostly Cloudy
1:15 PM 41.0 °F 34.3 °F 28.4 °F 61% 30.07 in 10.0 mi North 11.5 mph 16.1 mph N/A   Mostly Cloudy
1:35 PM 41.0 °F 33.9 °F 28.4 °F 61% 30.06 in 10.0 mi NNW 12.7 mph 17.3 mph N/A   Overcast
1:55 PM 41.0 °F 33.9 °F 28.4 °F 61% 30.06 in 10.0 mi North 12.7 mph 17.3 mph N/A   Overcast
2:15 PM 41.0 °F 34.7 °F 28.4 °F 61% 30.06 in 10.0 mi NNW 10.4 mph - N/A   Overcast
2:35 PM 41.0 °F 34.3 °F 26.6 °F 57% 30.07 in 10.0 mi NNW 11.5 mph - N/A   Overcast
2:55 PM 39.2 °F 33.0 °F 28.4 °F 65% 30.07 in 10.0 mi NNW 9.2 mph 16.1 mph N/A   Scattered Clouds
3:35 PM 42.8 °F 36.6 °F 28.4 °F 57% 30.07 in 10.0 mi NNW 11.5 mph 18.4 mph N/A   Mostly Cloudy
3:55 PM 41.0 °F 33.9 °F 28.4 °F 61% 30.08 in 10.0 mi NNW 12.7 mph - N/A   Overcast
4:15 PM 41.0 °F 33.9 °F 28.4 °F 61% 30.08 in 10.0 mi NNW 12.7 mph - N/A   Overcast
4:35 PM 39.2 °F 32.0 °F 28.4 °F 65% 30.09 in 10.0 mi North 11.5 mph 18.4 mph N/A   Overcast
4:55 PM 39.2 °F 34.2 °F 26.6 °F 61% 30.10 in 10.0 mi NNW 6.9 mph - N/A   Overcast
5:15 PM 37.4 °F 32.1 °F 26.6 °F 65% 30.10 in 10.0 mi NNW 6.9 mph - N/A   Mostly Cloudy
5:35 PM 37.4 °F 32.1 °F 26.6 °F 65% 30.10 in 10.0 mi NW 6.9 mph - N/A   Scattered Clouds
5:55 PM 37.4 °F 31.4 °F 26.6 °F 65% 30.11 in 10.0 mi NW 8.1 mph - N/A   Mostly Cloudy
6:15 PM 37.4 °F 31.4 °F 26.6 °F 65% 30.12 in 10.0 mi NNW 8.1 mph - N/A   Mostly Cloudy
6:35 PM 37.4 °F 32.1 °F 26.6 °F 65% 30.12 in 10.0 mi NW 6.9 mph - N/A   Mostly Cloudy
6:55 PM 37.4 °F 30.8 °F 26.6 °F 65% 30.13 in 10.0 mi NW 9.2 mph - N/A   Mostly Cloudy
7:15 PM 37.4 °F 32.8 °F 26.6 °F 65% 30.14 in 10.0 mi NNW 5.8 mph - N/A   Overcast
7:35 PM 37.4 °F 32.8 °F 26.6 °F 65% 30.14 in 10.0 mi NNW 5.8 mph - N/A   Overcast
7:55 PM 35.6 °F 30.7 °F 26.6 °F 70% 30.14 in 10.0 mi NNW 5.8 mph - N/A   Overcast
8:15 PM 33.8 °F 28.6 °F 26.6 °F 75% 30.15 in 10.0 mi NW 5.8 mph - N/A   Overcast
8:35 PM 35.6 °F 32.8 °F 26.6 °F 70% 30.16 in 10.0 mi NW 3.5 mph - N/A   Overcast
8:55 PM 33.8 °F 29.6 °F 26.6 °F 75% 30.16 in 10.0 mi NW 4.6 mph - N/A   Overcast
9:15 PM 33.8 °F 30.8 °F 26.6 °F 75% 30.17 in 10.0 mi NNW 3.5 mph - N/A   Overcast
9:35 PM 35.6 °F 32.8 °F 26.6 °F 70% 30.17 in 10.0 mi North 3.5 mph - N/A   Overcast
9:55 PM 35.6 °F - 26.6 °F 70% 30.17 in 10.0 mi Calm Calm - N/A   Overcast
10:15 PM 35.6 °F 32.8 °F 24.8 °F 65% 30.17 in 10.0 mi North 3.5 mph - N/A   Mostly Cloudy
10:35 PM 33.8 °F 30.8 °F 24.8 °F 70% 30.17 in 10.0 mi North 3.5 mph - N/A   Scattered Clouds
10:55 PM 33.8 °F 29.6 °F 24.8 °F 70% 30.18 in 10.0 mi North 4.6 mph - N/A   Scattered Clouds
11:15 PM 33.8 °F 29.6 °F 23.0 °F 65% 30.18 in 10.0 mi NNE 4.6 mph - N/A   Partly Cloudy
11:35 PM 33.8 °F 30.8 °F 23.0 °F 65% 30.19 in 10.0 mi North 3.5 mph - N/A   Scattered Clouds
11:55 PM 33.8 °F 29.6 °F 23.0 °F 65% 30.19 in 10.0 mi NNE 4.6 mph - N/A   Scattered Clouds